Location: Raven Hill Discovery Center
(45.1336°N, 85.0553°W)
Time: 13:10:47
(UTC-04:00)

Daily predictions for brighter satellites

Satellite Brightness Start Highest point End
(mag) Time Altitude Azimuth Time Altitude Azimuth Time Altitude Azimuth
Meteor 2-15 Rocket 4.5 21:58:37 10° S 22:04:38 75° E 22:10:43 10° NNE
H-2A R/B 3.3 22:01:50 10° ESE 22:06:21 29° ENE 22:10:58 10° N
ERS-1 Rocket 3.1 22:03:16 10° SSE 22:08:14 68° ENE 22:13:16 10° N
Cosmos 1802 Rocket 4.5 22:03:42 10° N 22:09:34 44° ENE 22:15:23 10° SSE
Abrixas rocket 3.2 22:06:40 10° WNW 22:09:49 45° N 22:12:58 10° E
Cosmos 1818 3.7 22:04:57 10° NNW 22:10:25 78° NE 22:15:52 10° SE
Cosmos 2227 Rocket 2.8 22:06:27 10° SW 22:12:03 63° WNW 22:17:41 10° NNE
Meteor 1-24 Rocket 4.2 22:08:42 10° SSW 22:14:36 71° WNW 22:20:21 10° N
Lacrosse 4 Rocket 2.8 22:10:52 10° SW 22:14:57 46° NW 22:19:12 10° NNE
Cosmos 1727 Rocket 4.2 22:08:43 10° S 22:15:03 85° W 22:21:27 10° N
Cosmos 1908 3.5 22:11:56 10° N 22:15:46 53° ENE 22:19:32 10° SSE
Cosmos 1674 3.1 22:14:15 10° SSE 22:17:50 44° E 22:21:26 10° NNE
Cosmos 1741 Rocket 4.1 22:12:46 10° S 22:18:00 60° ESE 22:23:13 10° NNE
SL-16 R/B 2.3 22:13:08 10° NNW 22:18:51 83° WSW 22:24:30 10° SSE
Cosmos 1184 Rocket 3.4 22:17:45 10° SSW 22:21:03 62° WNW 22:24:25 10° N
NOSS 3-4 (A) 4.5 22:18:37 10° NW 22:25:24 52° WSW 22:32:36 10° SSE
NOSS 3-4 (C) 4.5 22:18:42 10° NW 22:25:30 52° WSW 22:32:42 10° SSE
In-Cosmos 22 4.5 22:19:56 10° SSW 22:25:37 77° WNW 22:31:26 10° N
ARGOS 3.3 22:20:50 10° SSE 22:26:10 62° ENE 22:31:31 10° N
Cosmos 1408 Rocket 4.2 22:24:12 10° SSE 22:28:09 37° E 22:32:09 10° NNE
KORONAS-FOTON 4.4 22:24:48 10° SSE 22:28:21 39° E 22:31:54 10° NNE
MetOp-A 4.2 22:23:10 10° SSE 22:28:31 82° ENE 22:33:55 10° NNW
Cosmos 1356 Rocket 3.5 22:29:08 10° S 22:33:18 62° E 22:37:34 10° NNE
Cosmos 1076 Rocket 3.5 22:29:22 10° S 22:33:42 69° E 22:38:04 10° NNE
Tiangong 1 1.2 22:31:19 10° WSW 22:33:59 41° S 22:36:39 10° E
Terra 3.1 22:36:22 11° ESE 22:40:08 27° ENE 22:44:07 10° N
Cosmos 2016 Rocket 4.1 22:35:23 10° N 22:41:39 65° E 22:47:32 11° SSE
Cosmos 2221 3.2 22:39:03 10° NNW 22:43:21 55° W 22:47:38 10° S
Okean 3 Rocket 4.0 22:40:23 10° SSW 22:44:52 67° W 22:49:21 10° N
Cosmos 2208 Rocket 4.4 22:43:56 10° NNW 22:49:12 66° WSW 22:54:24 11° S
Cosmos 332 Rocket 4.2 22:45:56 10° NNW 22:50:45 54° ENE 22:54:33 16° SE
ERBS 3.6 22:48:36 10° NW 22:51:44 34° NNE 22:54:40 11° E
Cosmos 1814 Rocket 4.5 22:48:52 10° NNW 22:54:07 52° ENE 22:58:11 16° SE
Cosmos 2227 4.3 22:49:23 10° S 22:54:58 57° ESE 23:00:34 10° NNE
Cosmos 2151 4.4 22:54:02 16° SE 22:56:11 23° E 22:59:34 10° NE
RESURS DK-1 2.6 22:52:14 10° NNW 22:56:23 62° ENE 22:59:21 18° SE
CARTOSAT-1 4.4 22:55:32 16° SE 22:58:28 36° ENE 23:02:25 10° N
Cosmos 1242 Rocket 3.4 22:55:20 10° NNW 22:58:56 47° W 23:02:30 10° S
SL-08 RB Rocket 3.8 22:56:03 13° S 23:00:07 81° WSW 23:04:46 10° NNW
SPOT 1/Viking Rocket 3.5 22:56:35 14° SSE 23:01:01 84° ENE 23:06:12 10° NNW
Meteor 2-2 Rocket 4.3 22:56:39 10° N 23:02:26 72° E 23:07:11 16° SSE
YAOGAN 11 4.5 22:58:18 12° S 23:02:29 65° WSW 23:07:02 10° NNW
Cosmos 1766 Rocket 3.5 22:59:13 10° S 23:03:32 85° W 23:07:54 10° N
USA 245 3.7 23:03:34 14° S 23:06:16 53° W 23:10:16 10° NNW
Cosmos 2233 Rocket 4.5 23:01:04 10° N 23:07:02 45° ENE 23:11:20 18° SE
Cosmos 841 Rocket 4.2 23:02:38 10° N 23:07:38 42° ENE 23:11:13 18° SE
EO 1 Delta rocket 3.8 23:04:01 15° SSE 23:07:57 86° E 23:12:37 10° N
Cosmos 1328 Rocket 3.5 23:05:34 10° N 23:09:55 71° E 23:12:50 20° SSE
Cosmos 1763 Rocket 3.7 23:06:10 10° NNW 23:11:13 56° ENE 23:14:36 20° SE
Cosmos 2228 Rocket 3.2 23:06:46 10° N 23:11:22 68° E 23:14:28 20° SSE
Cosmos 2297 Rocket 4.3 23:08:06 10° WSW 23:12:59 29° NW 23:17:55 10° N
Cosmos 1515 Rocket 3.8 23:09:10 10° N 23:13:27 56° E 23:16:02 22° SSE
SL-14 R/B 3.3 23:10:43 18° S 23:13:32 62° E 23:17:26 10° NNE
Cosmos 1328 3.8 23:15:51 19° S 23:18:42 71° E 23:22:44 10° NNE
Cosmos 1867 3.9 23:14:01 10° SW 23:19:27 71° NW 23:24:56 10° NNE
H-2A R/B 2.6 23:17:20 22° SE 23:19:50 47° ENE 23:23:55 10° N
Cosmos 1743 Rocket 3.5 23:16:55 19° S 23:19:57 66° E 23:24:16 10° NNE
Cosmos 1151 Rocket 3.3 23:18:10 10° N 23:22:30 54° ENE 23:24:51 25° SE
Cosmos 1300 2.7 23:18:50 10° N 23:22:41 79° W 23:25:01 23° S
Cosmos 2263 Rocket 2.8 23:21:44 21° SSE 23:24:40 35° ESE 23:29:41 10° NE
Cosmos 1626 3.1 23:25:42 26° SE 23:26:48 31° E 23:30:08 10° NNE
Cosmos 1726 3.0 23:27:30 10° NNW 23:31:03 45° W 23:33:27 18° SSW
SPOT 5 4.1 23:28:20 11° SSW 23:32:36 37° W 23:37:17 10° NNW
ATLAS 5 CENTAUR R/B 3.2 23:28:57 10° WSW 23:33:28 42° NW 23:38:25 10° NNE
Meteor 2-10 4.3 23:28:01 10° NNW 23:33:36 76° W 23:37:39 20° S
Lacrosse 5 2.0 23:30:25 10° NW 23:35:26 64° SW 23:38:09 27° SSE
IGS 5A 3.4 23:33:58 27° SSE 23:36:10 85° ENE 23:40:21 10° NNW
Cosmos 2123 Rocket 4.1 23:30:35 10° SSW 23:36:44 75° W 23:42:58 10° N
Cosmos 371 Rocket 3.5 23:36:54 10° NNW 23:41:41 65° WSW 23:44:22 25° S
USA 234 3.4 23:36:04 10° NE 23:42:38 80° NW 23:49:09 10° WSW
H-2A R/B 3.0 23:41:25 15° SSW 23:45:33 43° W 23:50:43 10° NNW
Cosmos 1603 4.4 23:40:23 10° NW 23:45:47 47° WSW 23:49:18 21° S
Abrixas rocket 2.0 23:43:28 10° WNW 23:46:43 79° SSW 23:47:34 46° SE
Cosmos 2285 Rocket 4.3 23:40:33 10° NNW 23:46:49 57° ENE 23:50:38 24° SE
PSLV R/B 2.9 23:49:40 58° SE 23:50:03 69° ENE 23:52:54 10° N
CZ-4C R/B 4.0 23:53:11 31° SE 23:54:51 50° ENE 23:59:07 10° N
SL-19 R/B 4.2 23:55:52 39° E 23:56:06 40° ENE 23:58:51 10° N
